Погода в Туманове

Россия / Смоленская область     55°25′08″N   34°38′46″E
темп.,
°C
ветер,
м/с
пор.,
м/с
влажн.,
%
обл.,
%
осадки,
мм/ч
давл.,
гПа
погр.,
м
22 мая, вс
вс2200:00+8св5880100 0.0 1005231
03:00+4всв51289100 0.0 1004292
06:00+4всв612805 0.0 1004406
09:00+8св796515 0.0 1005904
12:00+10св775278 0.0 10051763
15:00+11св674578 0.0 10052079
18:00+10св575456 0.0 10052014
21:00+5ссв34677 0.0 100754
23 мая, пн
пн2300:00+2с22725 0.0 100814
03:00+1сз34755 0.0 100850
06:00+2сз48734 0.0 1009230
09:00+7ссз68520 0.0 10081053
12:00+10сз68445 0.0 10081593
15:00+12сз794117 0.0 10062027
18:00+12ссз610535 0.0 10061934
21:00+7сз49665 0.0 1007136
24 мая, вт
вт2400:00+4сз4116691 0.0 1008175
03:00+2зсз41177100 0.0 1009199
06:00+5зсз51275100 0.0 1008327
09:00+9сз61280100 0.1 10081404
12:00+11сз61172100 0.3 10081503
15:00+12ссз51160100 0.8 10081667
18:00+9св5664100 0.0 1010698
21:00+6с1274100 0.0 101215
25 мая, ср
ср2500:00+5с359197 0.1 1013656
03:00+4св228685 0.3 101473
06:00+4ссв2384100 0.0 1015267
09:00+6ссв346336 0.0 10151030
12:00+9с235272 0.0 10151485
15:00+12з124731 0.0 10151664
18:00+12зюз2151100 0.0 10151352
21:00+7ююв2265100 0.0 101511
26 мая, чт
чт2600:00+5ююв347677 0.0 101548
03:00+4ю4886100 0.0 1014133
06:00+6ююв51187100 0.0 1012270
09:00+10ююв71072100 0.0 1009487
12:00+14ююв81166100 0.0 1006791
15:00+13юв91584100 0.5 1002874
18:00+12ююв81296100 3.6 998836
21:00+11зюз7129191 4.4 999747